Probability
0 0 0 0 0 0 0 0 0 0 0 0 0 0 0 0 0 0 0 0 0 0 0 0 0 0 0 0 0 0 0 0 0 0 0 0 0 0
0 0 0 0 0 0 0 0 0 0 0 0 0 0 0 0 0 0 0 0 0 0 0 0 0 0 0 0 0 0 0 0 0 0 0 0 0 0
0 0 0 0 0 0 0 0 0 0 0 0 0 0 0 0 0 0 0 0 0 0 0 0 0 0 0 0 0 0 0 0 0 0 0 0 0 0
0 0 0 0 0 0 0 0 0 0 0 0 0 0 0 0 0 0 0 0 0 0 0 0 0 0 0 0 0 0 0 0 0 0 0 0 0 0
0 0 0 0 0 0 0 0 0 0 0 0 0 0 0 0 0 0 0 0 0 0 0 0 0 0 0 0 0 0 0 0 0 0 0 0 0 0
0 0 0 0 0 0 0 0 0 0 0 0 0 0 0 0 0 0 0 0 0 0 0 0 0 0 0 0 0 0 0 0 0 0 0 0 0 0
0 0 0 0 0 0 0 0 0 0 0 0 0 0 0 0 0 0 0 0 0 0 0 0 0 0 0 0 0 0 0 0 0 0 0 0 0 0
0 0 0 0 0 0 0 0 0 0 0 0 0 0 0 0 0 0 0 0 0 0 0 0 0 0 0 0 0 0 0 0 0 0 0 0 0 0
0 0 0 0 0 0 0 0 0 0 0 0 0 0 0 0 0 0 0 0 0 0 0 0 0 0 0 0 0 0 0 0 0 0 0 0 0 0
0 0 0 0 0 0 0 0 0 0 0 0 0 0 0 0 0 0 0 0 0 0 0 0 0 0 0 0 0 0 0 0 0 0 0 0 0 0
0 0 0 0 0 0 0 0 0 0 0 0 0 0 0 0 0 0 0 0 0 0 0 0 0 0 0 0 0 0 0 0 0 0 0 0 0 0
0 0 0 0 0 0 0 0 0 0 0 0 0 0 0 0 0 0 0 0 0 0 0 0 0 0 0 0 0 0 0 0 0 0 0 0 0 0
0 0 0 0 0 0 0 0 0 0 0 0 0 0 0 0 0 0 0 0 0 0 0 0 0 0 0 0 0 0 0 0 0 0 0 0 0 0
0 0 0 0 0 0 0 0 0 0 0 0 0 0 0 0 0 0 0 0 0 0 0 0 0 0 0 0 0 0 0 0 0 0 0 0 0 0
0 0 0 0 0 0 0 0 0 0 0 0 0 0 0 0 0 0 0 0 0 0 0 0 0 0 0 0 0 0 0 0 0 0 0 0 0 0
0 0 0 0 0 0 0 0 0 0 0 0 0 0 0 0 0 0 0 0 0 0 0 0 0 0 0 0 0 0 0 0 0 0 0 0 0 0
0 0 0 0 0 0 0 0 0 0 0 0 0 0 0 0 0 0 0 0 0 0 0 0 0 0 0 0 0 0 0 0 0 0 0 0 0 0
0 0 0 0 0 0 0 0 0 0 0 0 0 0 0 0 0 0 0 0 0 0 0 0 0 0 0 0 0 0 0 0 0 0 0 0 0 0
0 0 0 0 0 0 0 0 0 0 0 0 0 0 0 0 0 0 0 0 0 0 0 0 0 0 0 0 0 0 0 0 0 0 0 0 0 0
0 0 0 0 0 0 0 0 0 0 0 0 0 0 0 0 0 0 0 0 0 0 0 0 0 0 0 0 0 0 0 0 0 0 0 0 0 0
0 0 0 0 0 0 0 0 0 0 0 0 0 0 0 0 0 0 0 0 0 0 0 0 0 0 0 0 0 0 0 0 0 0 0 0 0 0
0 0 0 0 0 0 0 0 0 0 0 0 0 0 0 0 0 0 0 0 0 0 0 0 0 0 0 0 0 0 0 0 0 0 0 0 0 0
0 0 0 0 0 0 0 0 0 0 0 0 0 0 0 0 0 0 0 0 0 0 0 0 0 0 0 0 0 0 0 0 0 0 0 0 0 0
Height
5690 5692 5695 5697 5699 5702 5704 5706 5709 5711 5714 5716 5716 5717 5717 5718 5720 5720 5722 5722 5724 5725 5726 5727 5728 5728 5728 5728 5728 5727 5727 5726 5724 5723 5721 5719 5718 5716
5678 5681 5683 5685 5687 5689 5692 5694 5696 5698 5701 5704 5705 5705 5706 5707 5708 5709 5710 5711 5712 5713 5715 5716 5717 5717 5717 5717 5717 5717 5716 5715 5714 5712 5710 5709 5707 5705
5666 5669 5671 5673 5675 5677 5679 5682 5684 5685 5688 5690 5692 5693 5694 5695 5696 5697 5698 5699 5700 5702 5703 5704 5705 5705 5705 5706 5705 5705 5705 5704 5703 5701 5699 5698 5696 5694
5654 5656 5659 5661 5663 5665 5667 5669 5671 5673 5675 5677 5679 5680 5682 5683 5684 5685 5686 5687 5688 5689 5691 5692 5692 5693 5693 5693 5693 5693 5693 5692 5691 5690 5688 5687 5685 5682
5642 5644 5647 5649 5651 5653 5655 5657 5659 5660 5662 5664 5666 5667 5669 5670 5671 5672 5673 5674 5675 5677 5678 5679 5680 5681 5681 5681 5681 5681 5681 5680 5679 5678 5676 5674 5672 5670
5629 5632 5634 5636 5638 5640 5642 5644 5646 5648 5649 5651 5653 5654 5656 5657 5658 5659 5660 5662 5663 5664 5665 5666 5667 5668 5668 5669 5669 5669 5668 5667 5666 5665 5664 5662 5660 5657
5617 5619 5621 5623 5625 5627 5629 5631 5633 5634 5636 5637 5639 5641 5643 5644 5645 5646 5647 5648 5650 5651 5652 5653 5655 5655 5655 5655 5655 5656 5655 5654 5653 5652 5651 5649 5647 5645
5604 5606 5608 5610 5612 5614 5615 5617 5619 5621 5623 5624 5626 5627 5629 5630 5631 5632 5633 5635 5637 5639 5638 5639 5640 5641 5642 5642 5642 5642 5642 5641 5640 5639 5637 5636 5634 5631
5591 5593 5595 5597 5598 5600 5602 5603 5605 5607 5609 5610 5612 5613 5615 5617 5618 5618 5619 5620 5622 5623 5623 5625 5626 5627 5628 5628 5628 5628 5628 5627 5626 5625 5624 5622 5620 5618
5577 5579 5581 5583 5585 5586 5588 5590 5591 5593 5594 5596 5598 5600 5600 5601 5602 5603 5604 5606 5607 5608 5609 5611 5612 5613 5613 5613 5614 5613 5613 5613 5612 5611 5609 5608 5606 5604
5565 5566 5568 5570 5572 5573 5575 5576 5578 5579 5580 5581 5583 5584 5585 5586 5587 5588 5590 5591 5593 5594 5594 5596 5597 5598 5599 5599 5599 5598 5598 5598 5598 5596 5595 5594 5592 5590
5553 5554 5555 5557 5558 5558 5560 5562 5564 5565 5566 5567 5568 5569 5571 5572 5573 5574 5576 5577 5578 5580 5581 5581 5582 5583 5584 5585 5584 5584 5584 5583 5583 5582 5580 5579 5577 5575
5540 5542 5543 5544 5545 5546 5547 5549 5550 5551 5552 5553 5554 5555 5557 5558 5559 5561 5562 5563 5564 5565 5567 5567 5568 5568 5569 5570 5570 5570 5569 5569 5568 5567 5566 5564 5563 5562
5528 5529 5530 5531 5532 5533 5534 5535 5536 5536 5538 5539 5540 5541 5543 5545 5546 5547 5548 5549 5550 5552 5552 5553 5554 5554 5555 5556 5556 5556 5555 5554 5554 5553 5552 5551 5549 5548
5516 5517 5518 5518 5519 5520 5520 5521 5522 5523 5524 5525 5527 5528 5529 5531 5532 5533 5534 5535 5536 5537 5538 5539 5540 5540 5540 5541 5541 5541 5541 5540 5539 5539 5538 5537 5536 5535
5504 5505 5505 5506 5506 5507 5507 5508 5509 5510 5511 5513 5514 5515 5516 5517 5518 5520 5521 5522 5523 5524 5524 5525 5525 5526 5527 5527 5527 5527 5526 5526 5526 5525 5525 5523 5522 5521
5492 5492 5493 5493 5494 5494 5495 5496 5497 5498 5499 5500 5501 5502 5503 5504 5505 5507 5508 5509 5510 5510 5511 5511 5512 5512 5513 5513 5513 5513 5513 5512 5512 5512 5512 5511 5510 5509
5479 5480 5480 5481 5481 5482 5483 5483 5484 5485 5486 5487 5488 5490 5490 5491 5492 5493 5494 5495 5496 5497 5497 5498 5498 5499 5499 5499 5499 5499 5499 5499 5499 5498 5498 5499 5498 5497
5467 5467 5468 5468 5469 5470 5471 5471 5472 5473 5474 5475 5476 5477 5477 5478 5479 5480 5481 5481 5482 5483 5484 5484 5485 5486 5486 5487 5487 5486 5486 5486 5486 5486 5486 5486 5486 5485
5454 5455 5456 5456 5457 5458 5459 5460 5461 5461 5462 5463 5463 5464 5465 5465 5466 5467 5467 5468 5469 5469 5470 5471 5471 5473 5474 5475 5475 5473 5472 5473 5473 5473 5473 5473 5473 5472
5443 5443 5444 5445 5446 5447 5448 5449 5449 5450 5451 5451 5451 5452 5452 5453 5453 5453 5454 5455 5455 5456 5457 5458 5459 5460 5461 5461 5462 5461 5460 5459 5460 5461 5461 5461 5461 5460
5431 5432 5433 5434 5435 5436 5437 5437 5438 5439 5439 5440 5440 5440 5440 5440 5441 5441 5442 5442 5443 5444 5445 5446 5446 5447 5448 5449 5449 5449 5449 5448 5447 5447 5447 5448 5448 5448
5420 5421 5422 5423 5424 5424 5425 5426 5427 5428 5428 5428 5428 5428 5429 5429 5429 5429 5430 5431 5432 5432 5433 5434 5434 5435 5435 5436 5437 5437 5437 5437 5436 5436 5436 5435 5435 5435
Wind_Speed
45 45 45 46 47 46 46 45 44 44 44 43 43 43 42 42 42 42 42 41 40 40 40 40 39 38 38 38 38 38 38 37 37 37 37 37 38 38
47 47 47 47 47 48 47 46 46 45 45 45 44 44 43 43 43 43 43 43 42 42 41 41 40 40 40 40 40 39 39 38 39 39 39 39 39 40
45 46 47 48 48 48 47 47 46 46 46 45 45 44 43 44 44 44 44 44 44 43 43 42 42 41 41 41 41 40 40 40 40 41 41 41 41 42
45 45 45 46 46 46 47 47 47 47 47 46 46 45 45 45 45 46 46 45 45 45 44 43 43 42 42 43 43 43 42 42 42 42 43 44 44 44
47 47 46 46 46 47 47 47 47 47 48 48 47 46 46 46 46 46 46 47 47 47 45 44 44 43 43 44 44 44 44 44 43 44 44 45 45 46
48 48 48 48 47 47 47 47 48 48 49 48 48 48 48 47 47 47 47 48 48 48 47 46 46 45 44 45 45 46 46 46 45 45 46 46 46 46
48 48 48 49 48 48 48 48 48 48 48 48 48 48 49 49 49 49 48 48 49 48 48 48 47 47 47 47 46 46 46 46 47 47 47 47 47 47
47 48 48 49 49 49 49 49 49 49 48 49 49 49 49 49 50 49 49 50 50 51 51 50 49 49 49 49 48 48 48 48 49 49 48 49 48 48
47 48 48 48 48 49 50 50 50 50 50 50 50 49 50 50 50 50 50 51 51 51 52 52 52 51 50 50 50 50 50 50 49 49 50 50 50 49
45 45 47 47 47 48 49 50 50 50 51 51 51 51 51 51 51 50 50 50 50 51 53 52 51 51 51 51 52 51 51 51 50 50 51 51 51 50
44 45 46 47 47 48 48 49 49 49 50 50 50 50 50 50 50 50 50 49 49 49 50 51 51 51 51 51 51 51 52 52 51 51 51 51 51 50
43 43 43 45 45 46 47 47 48 48 49 49 49 49 50 50 50 50 49 49 48 48 49 50 50 51 51 51 51 51 51 52 52 52 52 51 50 49
41 41 42 45 46 47 47 48 47 47 48 49 49 49 50 50 50 49 48 49 49 48 49 49 50 51 51 50 50 51 51 51 51 51 50 49 48 48
40 41 42 43 45 47 48 48 47 47 48 48 49 49 48 48 48 48 48 48 49 50 50 51 50 50 50 50 49 50 50 51 51 50 49 48 48 47
42 41 41 43 44 45 45 46 45 45 45 46 46 46 47 47 47 47 47 47 48 49 49 50 50 50 49 50 49 49 50 50 49 48 47 47 47 45
41 41 42 42 43 43 43 44 43 43 44 44 44 44 44 45 45 45 46 47 47 48 48 49 49 49 49 49 49 49 49 48 47 46 46 45 44 44
42 42 42 43 42 42 43 43 43 43 43 43 43 43 44 44 45 45 46 47 48 48 48 48 48 48 48 49 49 49 48 47 46 45 45 44 44 43
43 42 42 42 42 42 42 42 43 43 43 43 44 45 45 45 45 45 45 46 47 47 47 47 48 47 48 48 47 47 46 45 45 45 45 45 44 43
41 40 41 41 40 40 41 41 42 42 42 43 43 44 44 45 45 45 45 46 46 47 47 46 47 47 46 45 45 46 46 46 45 45 45 44 43 42
40 39 39 38 38 38 39 39 39 40 40 41 42 42 43 43 44 44 45 45 46 46 46 46 46 45 44 43 43 44 45 45 44 43 43 43 42 42
39 39 39 38 38 38 38 38 38 38 38 39 40 42 42 43 43 43 43 43 44 44 43 43 43 44 44 44 43 43 43 43 43 43 43 43 42 41
37 37 37 37 37 38 38 39 39 39 39 39 40 40 40 41 41 41 41 41 41 41 40 41 41 42 43 43 42 41 41 41 41 41 42 42 42 41
36 37 37 36 36 37 38 38 38 39 39 39 40 39 39 39 39 39 39 39 39 39 39 40 40 40 40 40 40 40 40 39 40 40 40 40 40 40
Wind_Direction
251 251 252 252 252 253 253 254 254 255 255 257 259 259 260 261 262 262 262 263 263 264 265 267 268 269 271 271 271 273 275 277 280 281 281 281 283 284
250 251 251 252 253 254 254 254 255 256 257 257 258 259 259 259 260 263 264 263 263 264 265 266 267 269 270 271 270 271 274 276 278 280 281 281 281 282
251 251 251 252 253 254 254 254 255 257 258 258 258 257 258 258 259 261 263 264 264 265 266 266 267 267 269 270 270 271 273 276 277 278 280 280 281 282
250 251 252 253 253 253 255 255 256 257 259 259 258 257 258 258 260 261 262 263 264 263 264 265 266 267 268 269 270 271 273 275 276 277 279 280 281 283
250 252 253 254 254 254 255 256 257 258 259 259 258 258 259 259 260 261 261 262 263 263 263 264 266 268 268 269 270 272 273 274 275 277 279 280 283 283
251 252 254 254 255 255 255 255 256 257 258 259 259 259 259 260 261 262 262 262 262 263 263 264 265 267 268 269 270 272 273 273 275 276 278 280 282 283
253 254 254 254 254 255 254 255 256 257 257 258 259 260 260 260 261 262 263 263 263 264 264 264 266 266 268 269 270 271 272 273 274 276 277 279 281 282
253 253 254 254 255 255 255 255 255 256 256 258 259 259 260 261 261 262 264 264 265 265 265 265 265 266 267 268 270 271 272 272 274 276 277 278 280 282
254 253 253 254 254 256 256 256 256 256 257 258 259 258 259 260 261 262 263 264 264 265 265 265 265 266 267 269 270 270 271 272 274 275 277 278 280 282
254 254 254 254 254 256 256 257 257 257 257 259 259 258 259 259 261 262 262 263 264 265 264 265 265 266 267 268 269 270 270 272 273 275 277 278 280 281
257 257 257 256 256 256 257 258 257 257 258 260 261 260 260 260 260 261 263 264 264 264 265 265 265 265 266 268 269 270 271 272 273 275 276 278 279 281
258 259 259 257 256 257 257 258 258 259 260 261 262 262 262 261 261 262 263 264 264 264 264 266 266 266 267 268 269 270 271 272 273 275 276 277 278 280
260 259 259 258 258 259 259 260 260 260 260 261 261 262 261 261 261 262 263 264 264 264 265 266 267 267 268 269 270 270 271 271 273 274 275 276 278 280
259 260 261 260 260 261 261 262 261 261 261 261 261 260 260 260 261 262 264 264 265 265 265 266 267 268 268 269 270 270 271 272 272 274 274 276 277 278
260 261 262 261 261 261 261 261 261 260 260 260 260 260 260 260 260 262 263 263 264 264 265 266 267 268 269 269 271 270 271 272 273 273 274 275 277 276
260 261 262 262 262 262 261 260 259 259 260 260 260 260 261 261 262 262 262 263 263 264 265 266 266 267 269 269 270 271 271 271 272 273 274 275 277 276
262 263 263 263 263 262 261 259 259 259 260 260 260 260 261 261 262 262 263 264 264 264 265 265 266 266 268 269 271 271 271 270 271 273 273 274 275 275
262 262 262 262 262 261 260 259 259 260 260 260 261 261 262 263 263 263 264 264 265 265 265 265 266 267 267 268 269 270 269 270 270 272 273 273 273 273
261 261 261 261 260 260 261 261 261 261 262 262 262 262 263 263 264 264 265 265 265 266 265 266 266 266 265 267 268 269 270 269 270 271 272 272 272 272
260 260 260 260 260 260 261 262 262 262 262 262 263 263 263 264 265 265 264 265 265 265 265 265 265 265 264 266 268 270 271 270 269 270 271 271 271 272
259 260 260 260 260 261 261 262 262 263 264 264 264 265 264 265 265 265 264 264 264 264 264 264 264 265 264 266 268 269 270 270 269 269 269 270 271 272
258 258 259 260 260 261 261 262 262 263 265 266 266 266 266 265 264 264 263 264 263 262 262 263 264 266 266 266 267 267 268 270 270 270 270 271 271 271
257 257 258 259 260 261 261 261 262 264 265 266 267 267 267 266 265 265 264 263 263 262 262 263 265 266 266 267 267 267 268 269 271 271 271 271 272 272